Henderson, KY

12:53 PM CDT on June 20, 2019 (GMT -0500)
Henderson City-County

Weather History for KEHR - May, 2019

Change the Weather History Date:

Thursday, May 23, 2019

  Actual Average Record
Temperature  
Mean Temperature 80 °F -  
Max Temperature 88 °F 79 °F 92 °F (1939)
Min Temperature 72 °F 58 °F 38 °F (1963)
Cooling Degree Days 16    
Growing Degree Days 30 (Base 50)    
Moisture  
Dew Point 70 °F    
Average Humidity 72    
Maximum Humidity 93    
Minimum Humidity 55    
Precipitation  
Precipitation 0.00 in - - ()
Sea Level Pressure  
Sea Level Pressure 30.07 in    
Wind  
Wind Speed 11 mph (SW)    
Max Wind Speed 23 mph    
Max Gust Speed 29 mph    
Visibility 10 miles    
Events      
Averages and records for this station are not official NWS values.
T = Trace of Precipitation, MM = Missing Value Source: NWS Daily Summary

Daily Weather History Graph

Daily Weather History Graph

Search for Another Location

Airport or City:

Astronomy

May. 23, 2019 Rise Set
Actual Time 5:35 AM CDT 8:00 PM CDT
Civil Twilight 5:04 AM CDT 8:30 PM CDT
Nautical Twilight 4:27 AM CDT 9:07 PM CDT
Astronomical Twilight 3:46 AM CDT 9:48 PM CDT
Moon No Moon Rise 9:38 AM CDT (5/23)
Length of Visible Light 15h 25m
Length of Day
14h 25m
Waning Gibbous, 77% of the Moon is Illuminated
May 23
Waning Gibbous
May 26
Last Quarter
Jun 3
New
Jun 10
First Quarter
Jun 17
Full

Hourly Weather History & Observations

Time (CDT) Temp. Heat Index Dew Point Humidity Pressure Visibility Wind Dir Wind Speed Gust Speed Precip Events Conditions
12:56 AM 75.9 °F - 70.0 °F 82% 30.01 in 10.0 mi South 9.2 mph - N/A   Clear
1:56 AM 75.9 °F - 69.1 °F 79% 30.01 in 10.0 mi South 10.4 mph - N/A   Clear
2:56 AM 75.0 °F - 69.1 °F 82% 30.01 in 10.0 mi South 9.2 mph - N/A   Clear
3:56 AM 73.0 °F - 68.0 °F 84% 30.03 in 10.0 mi SSW 8.1 mph - N/A   Clear
4:56 AM 75.0 °F - 68.0 °F 79% 30.05 in 10.0 mi South 8.1 mph - N/A   Clear
5:56 AM 73.9 °F - 68.0 °F 82% 30.08 in 10.0 mi SSW 9.2 mph - N/A   Clear
6:56 AM 75.0 °F - 69.1 °F 82% 30.09 in 10.0 mi SSW 12.7 mph - N/A   Clear
7:56 AM 79.0 °F - 70.0 °F 74% 30.10 in 10.0 mi SW 16.1 mph - N/A   Clear
8:56 AM 82.0 °F 86.7 °F 72.0 °F 71% 30.09 in 10.0 mi SW 18.4 mph 24.2 mph N/A   Clear
9:56 AM 82.9 °F 87.5 °F 71.1 °F 67% 30.11 in 10.0 mi WSW 15.0 mph - N/A   Clear
10:56 AM 82.9 °F 88.0 °F 72.0 °F 69% 30.12 in 10.0 mi WSW 16.1 mph 21.9 mph N/A   Clear
11:56 AM 87.1 °F 92.8 °F 71.1 °F 59% 30.10 in 10.0 mi WSW 18.4 mph - N/A   Clear
12:56 PM 86.0 °F 91.5 °F 71.1 °F 61% 30.11 in 10.0 mi WSW 17.3 mph - N/A   Scattered Clouds
1:56 PM 87.1 °F 92.0 °F 70.0 °F 57% 30.09 in 10.0 mi SSW 15.0 mph 20.7 mph N/A   Partly Cloudy
2:56 PM 88.0 °F 92.9 °F 70.0 °F 55% 30.07 in 10.0 mi SW 23.0 mph 28.8 mph N/A   Partly Cloudy
3:56 PM 84.9 °F 88.8 °F 69.1 °F 59% 30.06 in 10.0 mi SW 13.8 mph 24.2 mph N/A   Clear
4:56 PM 84.9 °F 89.4 °F 70.0 °F 61% 30.07 in 10.0 mi West 12.7 mph - N/A   Clear
5:56 PM 86.0 °F 90.7 °F 70.0 °F 59% 30.07 in 8.0 mi WSW 15.0 mph - N/A   Clear
6:31 PM 84.2 °F 88.4 °F 69.8 °F 62% 30.07 in 10.0 mi West 10.4 mph - N/A   Partly Cloudy
6:56 PM 84.0 °F 88.4 °F 70.0 °F 63% 30.07 in 10.0 mi West 8.1 mph - N/A   Clear
7:56 PM 81.0 °F 84.4 °F 70.0 °F 69% 30.07 in 10.0 mi SW 5.8 mph - N/A   Clear
8:56 PM 78.1 °F - 70.0 °F 76% 30.08 in 7.0 mi Calm Calm - N/A   Clear
9:56 PM 75.0 °F - 69.1 °F 82% 30.09 in 10.0 mi South 5.8 mph - N/A   Clear
10:56 PM 73.9 °F - 70.0 °F 87% 30.09 in 10.0 mi South 3.5 mph - N/A   Clear
11:56 PM 72.0 °F - 70.0 °F 93% 30.08 in 10.0 mi South 3.5 mph - N/A   Clear